Location: Hilton Head Island
(32.2163°N, 80.7526°W)
Time: 11:22:15
(UTC-04:00)

S-56A Canister/Altair - Pass Details

Date: 23 February 2026
Orbit: 633 x 2484 km, 38.9° (Epoch: 10 March)

Event Time Altitude Azimuth Distance (km) Brightness Sun altitude
Exits shadow 04:58:00 37° 236° (SW) 2,428 9.6 -25.9°
Maximum altitude 04:59:48 39° 215° (SW) 2,457 9.7 -25.6°
Drops below altitude 10° 05:11:16 10° 153° (SSE) 4,778 11.8 -23.1°
Sets 05:15:49 0° 146° (SE) 5,963 12.5 -22.2°
